EW7152 Weather Reports


time (UTC)temp
F
wind
direction
speed
knots
gust
knots
rain 1hr
in
rain 24hr
in
rain mn
in
humidity
%
barometer
mb
20260507134509 35 235 3.5 8.7 0.00 0.01 0.01 74 1020.4
20260507133007 35 239 3.5 7.8 0.00 0.01 0.01 73 1020.4
20260507131507 34 224 2.6 6.1 0.00 0.01 0.01 73 1020.5
20260507130004 35 235 0.9 4.3 0.00 0.01 0.01 71 1020.8
20260507124501 35 261 0.0 4.3 0.00 0.01 0.01 70 1020.8
20260507123100 35 271 1.7 5.2 0.00 0.01 0.01 69 1020.4
20260507121601 36 224 0.0 2.6 0.00 0.01 0.01 68 1020.7
20260507120059 36 220 0.0 7.8 0.00 0.01 0.01 67 1020.7
20260507114600 37 213 2.6 11.3 0.00 0.01 0.01 65 1020.6
20260507113056 37 234 1.7 8.7 0.00 0.01 0.01 65 1020.9
20260507111555 37 237 0.9 13.0 0.00 0.01 0.01 64 1020.8
20260507110059 37 224 0.0 0.0 0.00 0.01 0.01 64 1020.2
20260507104557 38 226 3.5 8.7 0.00 0.01 0.01 64 1020.3
20260507103115 38 212 2.6 7.8 0.00 0.01 0.01 64 1020.1
20260507101649 38 217 0.9 4.3 0.00 0.01 0.01 63 1020.3
20260507094548 39 277 2.6 7.0 0.00 0.01 0.01 60 1020.0
20260507093043 40 260 0.0 6.1 0.00 0.01 0.01 60 1019.6
20260507091545 40 253 3.5 8.7 0.00 0.01 0.01 59 1019.3
20260507090043 40 214 2.6 9.6 0.00 0.01 0.01 60 1019.1
20260507084545 41 266 3.5 10.4 0.00 0.01 0.01 60 1018.8
20260507083035 41 262 5.2 10.4 0.00 0.01 0.01 60 1018.4
20260507081532 42 212 5.2 12.2 0.00 0.01 0.01 60 1018.0
20260507080030 42 232 7.0 15.6 0.00 0.01 0.01 60 1017.5
20260507074526 43 270 5.2 13.9 0.00 0.01 0.01 66 1017.2
20260507073026 44 231 5.2 14.8 0.00 0.01 0.01 71 1017.2
20260507071527 44 275 3.5 11.3 0.00 0.01 0.01 74 1016.7
20260507070125 45 253 3.5 13.9 0.00 0.01 0.01 75 1016.3
20260507064522 46 243 7.0 13.9 0.00 0.01 0.01 79 1016.2
20260507063021 46 226 6.1 18.2 0.00 0.01 0.01 80 1016.2
20260507061521 47 256 6.1 16.5 0.00 0.01 0.01 80 1015.8
20260507060021 47 181 7.0 13.9 0.00 0.01 0.01 79 1015.7
20260507054516 49 222 7.8 13.0 0.00 0.01 0.01 78 1015.4
20260507053014 51 282 7.0 16.5 0.00 0.01 0.01 73 1015.1
20260507051514 52 299 7.0 16.5 0.00 0.01 0.01 69 1014.8
20260507050034 53 275 7.0 13.9 0.00 0.01 0.01 69 1014.8
20260507044513 52 245 7.0 18.2 0.00 0.01 0.01 69 1015.2
20260507043012 52 214 7.0 13.9 0.00 0.01 0.01 69 1014.9
20260507041513 51 247 6.1 13.9 0.00 0.01 0.01 71 1015.0
20260507040010 50 265 5.2 14.8 0.00 0.01 0.01 74 1015.1
20260507034508 51 195 6.1 13.0 0.00 0.01 0.01 72 1015.1
20260507033008 53 255 7.0 15.6 0.00 0.01 0.01 67 1015.3
20260507031508 54 197 7.0 14.8 0.00 0.01 0.01 66 1015.3
20260507030007 54 225 5.2 13.0 0.00 0.01 0.01 66 1015.6
20260507024506 54 223 4.3 14.8 0.00 0.01 0.01 67 1015.4
20260507023005 54 239 4.3 12.2 0.00 0.01 0.01 69 1015.2
20260507021504 54 232 6.1 13.9 0.00 0.01 0.01 68 1015.6
20260507020002 54 281 3.5 13.9 0.00 0.01 0.01 66 1015.6
20260507014623 54 238 6.1 13.9 0.00 0.01 0.01 63 1016.0
20260507013102 54 260 5.2 13.9 0.00 0.01 0.01 65 1016.1
20260507011601 54 265 5.2 12.2 0.00 0.01 0.01 68 1016.4
20260507010055 53 262 5.2 11.3 0.00 0.01 0.01 64 1016.5
20260507004551 53 226 4.3 11.3 0.00 0.01 0.01 69 1016.8
20260507003048 52 280 6.1 12.2 0.00 0.01 0.01 65 1017.1
20260507001558 51 270 4.3 10.4 0.00 0.01 0.01 70 1016.9
20260507000053 50 306 3.5 10.4 0.00 0.01 0.01 73 1016.8
20260506234543 49 272 4.3 12.2 0.00 0.01 0.01 75 1017.1
20260506233034 48 265 4.3 9.6 0.00 0.01 0.01 76 1017.1
20260506231533 47 247 3.5 8.7 0.00 0.01 0.01 82 1017.1
20260506230028 45 268 4.3 9.6 0.00 0.01 0.01 88 1017.1
20260506224521 44 281 4.3 7.8 0.00 0.01 0.01 92 1016.9
20260506223019 44 283 4.3 7.0 0.00 0.01 0.01 92 1017.0
20260506221518 42 251 2.6 6.1 0.00 0.01 0.01 93 1017.1
20260506220016 38 287 1.7 5.2 0.00 0.01 0.01 91 1017.1
20260506214515 36 53 0.9 1.7 0.00 0.01 0.01 88 1017.1
20260506213013 35 53 0.0 0.9 0.00 0.01 0.01 86 1017.1
20260506211515 34 53 0.0 0.0 0.00 0.01 0.01 86 1016.8
20260506210014 33 53 0.0 0.0 0.00 0.01 0.01 85 1016.7
20260506204509 34 53 0.0 0.0 0.00 0.01 0.01 85 1016.4
20260506203002 34 53 0.0 0.0 0.00 0.01 0.01 85 1016.2
20260506201600 35 53 0.0 0.0 0.00 0.01 0.01 85 1016.1
20260506201501 35 53 0.0 0.0 0.00 0.01 0.01 85 1016.1
20260506200059 35 53 0.0 0.0 0.00 0.01 0.01 85 1015.8
20260506194556 36 53 0.0 0.0 0.00 0.01 0.01 85 1015.8
20260506193056 36 53 0.0 0.0 0.00 0.01 0.01 85 1015.9
20260506191559 37 53 0.0 0.0 0.00 0.01 0.01 85 1015.9
20260506190051 37 53 0.0 0.0 0.00 0.01 0.01 85 1015.8
20260506184547 38 53 0.0 0.0 0.00 0.01 0.01 85 1015.6
20260506183045 38 53 0.0 0.0 0.00 0.01 0.01 85 1015.6
20260506181557 39 53 0.0 0.0 0.00 0.01 0.01 85 1015.6
20260506180042 39 53 0.0 0.0 0.00 0.01 0.01 85 1015.4
20260506174539 40 53 0.0 0.0 0.00 0.01 0.01 85 1015.4
20260506173103 40 53 0.0 0.0 0.00 0.01 0.01 85 1015.3
20260506171541 40 53 0.0 0.0 0.00 0.01 0.01 85 1015.4
20260506170050 41 53 0.0 0.0 0.00 0.01 0.01 85 1015.5
20260506164532 41 53 0.0 0.0 0.00 0.01 0.01 85 1015.6
20260506163032 42 237 0.0 0.0 0.01 0.01 0.01 85 1015.6
20260506161528 42 237 0.0 0.0 0.01 0.01 0.01 85 1015.8
20260506160024 43 237 0.0 0.0 0.01 0.01 0.01 85 1015.8
20260506154522 43 237 0.0 0.0 0.01 0.01 0.01 85 1016.0
20260506153024 43 237 0.0 0.0 0.00 0.00 0.00 85 1016.0
20260506151520 44 237 0.0 0.0 0.00 0.00 0.00 85 1016.0
20260506150018 44 237 0.0 0.0 0.00 0.00 0.00 85 1016.0
20260506144516 44 237 0.0 0.0 0.00 0.00 0.00 85 1016.1
20260506143023 44 237 0.0 0.0 0.00 0.00 0.00 85 1016.1
20260506141513 44 237 0.0 0.0 0.00 0.00 0.00 85 1016.2
20260506140017 44 237 0.0 0.0 0.00 0.00 0.00 86 1016.3